OBJECT C

Satellite information

Favourite Embed

Satellite Type and Status

UNKNOWNDECAYED

Key statistics

Satellite OBJECT C at a glance.

Uptime

301

Days in orbit

Revolutions

≈ 15.3

Per day

Orbit

SSO

Sun Synchronous Orbit

Inclination

97.5

Latest

Satellite identification and parameters

Extended collection of information and parameters for OBJECT C.

Object identification

Identified? True

Debris? False

Object name: OBJECT C

International designator: 2023-189C

Object number (NORAD): 58504

Object ID (CCSDS): 58504

Country: PEOPLES REPUBLIC OF CHINA (PRC)

Current information (Y/N): Y

RCS size: MEDIUM

Orbital parameters

Decay date: Sept. 30, 2024

Period: 94.327 minutes

Inclination: 97.4629 deg

SMA: 6864.109 km

Apoapsis: 499.827 km

Periapsis: 472.12 km

RAAN: 50.3083 deg

Eccentricy: 0.0020183

Argument of periapsis: 60.3554 deg

Mean anomaly: 299.9692 deg

Mean motion: 15.26604512 rev/day

Mean motion (dot): 0.00052805 rev/day2

B* drag term: 0.0019958 1/REarth

Two-line elements (TLE)

Creation date: Feb. 12, 2024, 3:07 a.m.

Reference frame: TEME

Reference center: EARTH

Epoch: Feb. 11, 2024, 9:35 p.m. UTC

TLE line 0: 0 OBJECT C

TLE line 1: 1 58504U 23189C 24042.89994091 .00052805 00000-0 19958-2 0 9990

TLE line 2: 2 58504 97.4629 50.3083 0020183 60.3554 299.9692 15.26604512 10499

Live tracking on map

Satellite OBJECT C has decayed and is no longer in orbit. No tracking available.

In-orbit conjunctions

Satellite OBJECT C has decayed and is no longer in orbit. No conjunctions available.

Associated space launch

MisrSat-2 is an Earth observation satellite for the Egyptian Space Agency built by China, with participation from Egyptian engineers and scientists offering opportunity to acquire on-the-project experience in satellite design and integration from China, using facilities available in Egypt. Also riding on this launch is Starpool-02A/B, multi-purpose communication, remote sensing and navigation enhancement satellites from Beijing based ELLIPSPACE.

OBJECT C was lifted into orbit during the mission ‘Long March 2C | MisrSat-2’, on board a Long March 2 space rocket.

The launch took place on Dec. 4, 2023, 4:10 a.m. from Launch Area 4 (SLS-2 / 603).

For more information about the launch, click the button.

Launch to space Long March 2C | MisrSat-2
Long March 2C | MisrSat-2

Agency: N/A

Status: Launch Successful

Launch date: Dec. 4, 2023, 4:10 a.m. UTC

Rocket: Long March 2

Launch pad: Launch Area 4 (SLS-2 / 603)

Location: Jiuquan Satellite Launch Center, People's Republic of China

...

Latest news about this satellite

There are no fresh news available about this satellite. Check back as we update our databases every day.


Newsletter sign-up

Weekly statistics, charts and insights to help you stay on top of the space industry.